Location: Dehesa de la Cepeda
(40.6574°N, 4.3013°W)
Time: 00:28:09
(UTC+00:00)

Envisat - Pass Details

Date: 20 June 2021
Orbit: 764 x 766 km, 98.2° (Epoch: 27 July)

Event Time Altitude Azimuth Distance (km) Brightness Sun altitude
Rises 04:08:17 0° 38° (NE) 3,238 8.2 -6.7°
Reaches altitude 10° 04:13:32 10° 84° (E) 2,302 6.5 -5.9°
Maximum altitude 04:13:51 10° 88° (E) 2,298 6.4 -5.8°
Drops below altitude 10° 04:14:10 10° 91° (E) 2,301 6.3 -5.8°
Sets 04:19:22 0° 137° (SE) 3,217 6.3 -5.0°
